Regional Weather Roundup
Issued by NWS Midland/Odessa, TX

Skip options and go directly to product.
Home | Oldest Version | Previous Version | Current Version | All | Text Only | Save Text | Print | Product List | Glossary On

Skip product version selection by date and time.   
273
ASUS44 KMAF 020010
RWRMAF
MIDLAND AREA WEATHER ROUNDUP
NATIONAL WEATHER SERVICE MIDLAND TX
700 PM CDT WED OCT 01 2014

...IN SOUTHWEST TEXAS AND SOUTHEAST NEW MEXICO...

CITY           SKY/WX    TMP DP  RH WIND       PRES   REMARKS
ALPINE         CLEAR     82  40  22 W8        29.98S
ANDREWS        FAIR      85  41  21 SW12G20   29.81R
ARTESIA        NOT AVBL
BIG SPRING     CLEAR     88  49  25 SW7       29.79S
CARLSBAD       CLEAR     83  41  22 SW9       29.79R
DRYDEN           N/A     90  65  43 SE14      29.75R
FORT STOCKTON  CLEAR     89  42  19 S7        29.80R
GUAD PASS      CLEAR     73  33  23 SW24G35   29.97R
HOBBS          CLEAR     81  46  30 S10       29.84R
MARFA          CLEAR     81  39  22 W10       29.97S
MIDLAND AIRPK  CLEAR     89  48  24 SW7       29.80R
MIDLAND INTL   CLEAR     88  50  27 SW9       29.79S
ODESSA         CLEAR     86  50  28 SW8       29.81S
PECOS          CLEAR     89  46  22 SW7       29.77S
PRESIDIO       FAIR      93  42  17 SW7       29.79R
SEMINOLE       CLEAR     82  43  24 SW10      29.82S
SNYDER         PTCLDY    86  60  41 SW7       29.76R
WINK           CLEAR     89  44  20 SW8       29.77S
$$
...OTHER STATIONS IN TEXAS...

CITY           SKY/WX    TMP DP  RH WIND       PRES   REMARKS
ABILENE        PTCLDY    91  64  40 S15       29.72S
AMARILLO       CLEAR     78  42  27 SW9       29.79S
AUSTIN         PTCLDY    88  69  53 S9        29.75S
BROWNSVILLE    CLEAR     84  80  88 SE15      29.77R
CORPUS CHRISTI PTCLDY    84  76  76 SE15      29.77R
DALLAS FTW     PTCLDY    90  64  42 S15       29.72S
DEL RIO        MOCLDY    89  65  44 SE10      29.71S
EL PASO        CLEAR     83  33  16 W8        29.86S
HOUSTON INT    PTCLDY    85  74  69 S10       29.78S
LUBBOCK        PTCLDY    82  44  26 SW12      29.78S
SAN ANGELO     CLEAR     92  60  34 S10       29.74R
SAN ANTONIO    PTCLDY    89  67  47 SE12      29.77S
WACO           CLEAR     88  66  48 S14       29.75S
WICHITA FALLS  NOT AVBL
$$
...OTHER LOCATIONS IN NEW MEXICO...

CITY           SKY/WX    TMP DP  RH WIND       PRES   REMARKS
ALAMAGORDO     CLEAR     79  32  18 SW10      29.88R
ALBUQUERQUE    PTCLDY    76  27  16 W14       29.89R
CANNON AFB     CLEAR     78  36  22 SW12      29.84R
CLOVIS           N/A     77  39  25 SW9       29.85R
HOLLOMAN AFB   CLEAR     81  31  16 SW13      29.85R
ROSWELL        CLEAR     82  48  30 E7        29.78S
RUIDOSO        CLEAR     66  27  22 SW17      30.02R
SANTA FE       PTCLDY    70  24  17 W18G24    29.93R
TRUTH OR CONSE SUNNY     80  31  16 SE12      29.85F
TUCUMCARI      CLEAR     80  36  20 S9        29.77S
$$

USA.gov is the U.S. government's official web portal to all federal, state and local government web resources and services.